Location: G�nzburg
(48.4565°N, 10.3217°E)
Time: 06:05:17
(UTC+01:00)

Amateur Radio Satellites - All Passes

Search period start: 19 November 2017 05:35
Search period end: 20 November 2017 05:35
Location: G�nzburg, 48.4565°N, 10.3217°E

Satellite Date Start Highest point End Downlink Frequencies (MHz)
Time Altitude Azimuth
ITAMSAT 1 19 Nov 05:36:33 05:40:46 25° 300° (WNW) 05:44:59 435.822/435.867
DOVE 4 19 Nov 05:42:49 05:48:08 81° 285° (WNW) 05:53:12 437.250
PCSat 19 Nov 05:51:14 05:52:15 10° 1° (N) 05:53:16 145.827
KKS-1 19 Nov 05:54:13 05:57:13 17° 269° (W) 06:00:14 437.445
KAITUO 1B 19 Nov 06:05:02 06:08:18 28° 95° (E) 06:11:34 145.475/437.950
BEESAT 2 19 Nov 06:07:22 06:10:55 29° 321° (NW) 06:14:31 435.950
XW-2D 19 Nov 06:12:34 06:16:15 47° 99° (E) 06:19:57 145.860 - 145.880
YUBILEINY 19 Nov 06:18:19 06:27:04 86° 99° (E) 06:35:57 435.215
AO-7 19 Nov 06:20:18 06:26:54 28° 313° (NW) 06:33:32 .
STARS 19 Nov 06:26:00 06:29:10 19° 268° (W) 06:32:21 437.465
CUBEBUG 2 19 Nov 06:27:02 06:27:22 10° 86° (E) 06:27:42 437.445
XW-2B 19 Nov 06:27:14 06:31:02 67° 102° (ESE) 06:34:49 145.730 - 145.750
SEEDS 19 Nov 06:33:29 06:35:38 14° 88° (E) 06:37:45 437.485
RS-15 19 Nov 06:35:14 06:43:29 23° 262° (W) 06:51:28 29.354- 29.394
FO-29 19 Nov 06:35:54 06:41:35 29° 56° (NE) 06:47:45 435.910
BEESAT 3 19 Nov 06:43:34 06:44:43 11° 340° (NNW) 06:45:52 437.485
STRAND 1 19 Nov 06:47:11 06:52:21 87° 76° (ENE) 06:57:33 437.568
CUTE-I 19 Nov 06:48:10 06:53:35 75° 104° (ESE) 06:58:56 437.470
LilacSat-2 19 Nov 06:51:16 06:55:02 59° 287° (WNW) 06:58:49 437.200
XW-2C 19 Nov 06:52:42 06:56:28 61° 287° (WNW) 07:00:13 145.795 - 145.815
NUDT-PHONESAT 19 Nov 06:54:11 06:57:54 83° 285° (WNW) 07:01:37 437.300
SO-50 19 Nov 06:56:54 07:01:33 89° 53° (NE) 07:06:14 436.795
XW-2F 19 Nov 07:06:05 07:09:42 46° 289° (WNW) 07:13:21 145.980 - 146.000
AO-85 19 Nov 07:08:22 07:11:34 22° 327° (NNW) 07:14:55 145.980
HO-68 19 Nov 07:16:41 07:23:45 55° 101° (E) 07:30:46 435.675
DOVE 4 19 Nov 07:22:04 07:24:56 15° 305° (NW) 07:27:46 437.250
ZACube-1 19 Nov 07:24:29 07:26:27 13° 88° (E) 07:28:24 437.345
XW-2A 19 Nov 07:25:29 07:27:59 19° 93° (E) 07:30:29 145.665 - 145.685
UWE-3 19 Nov 07:26:57 07:30:24 25° 94° (E) 07:33:50 435.000/436.395/437.385
CUTE 1.7 + AOD 2 19 Nov 07:31:44 07:36:01 82° 103° (ESE) 07:40:18 437.475
PCSat 19 Nov 07:34:28 07:38:02 17° 27° (NNE) 07:41:37 145.827
KAITUO 1B 19 Nov 07:39:03 07:42:14 26° 292° (WNW) 07:45:23 145.475/437.950
XW-2D 19 Nov 07:47:36 07:50:05 17° 297° (WNW) 07:52:35 145.860 - 145.880
BEESAT 2 19 Nov 07:49:37 07:49:56 10° 343° (NNW) 07:50:16 435.950
CUBEBUG 2 19 Nov 08:00:25 08:04:39 86° 285° (WNW) 08:08:48 437.445
UNISAT 6 19 Nov 08:01:52 08:05:16 21° 62° (ENE) 08:08:37 437.425
XW-2B 19 Nov 08:02:56 08:04:42 13° 300° (WNW) 08:06:28 145.730 - 145.750
TIGRISAT 19 Nov 08:06:54 08:10:21 22° 63° (ENE) 08:13:45 435.000
SEEDS 19 Nov 08:07:32 08:11:46 69° 287° (WNW) 08:15:59 437.485
AO-73 19 Nov 08:15:44 08:19:37 38° 97° (E) 08:23:29 145.935
PRISM 19 Nov 08:16:31 08:17:39 11° 56° (NE) 08:18:47 437.425
YUBILEINY 19 Nov 08:18:05 08:25:06 26° 301° (WNW) 08:32:13 435.215
FO-29 19 Nov 08:19:20 08:25:55 72° 258° (WSW) 08:33:23 435.910
AAUSAT CUBESAT 2 19 Nov 08:22:24 08:26:37 80° 106° (ESE) 08:30:48 437.432
CUTE-I 19 Nov 08:29:14 08:33:04 20° 303° (WNW) 08:36:53 437.470
STRAND 1 19 Nov 08:29:30 08:32:14 14° 273° (W) 08:34:57 437.568
Oscar 11 19 Nov 08:35:04 08:39:12 42° 98° (E) 08:43:18 .
SO-50 19 Nov 08:38:52 08:41:22 14° 250° (WSW) 08:43:53 436.795
XW-2A 19 Nov 08:57:47 09:00:43 29° 291° (WNW) 09:03:40 145.665 - 145.685
ZACube-1 19 Nov 08:59:05 09:03:13 67° 286° (WNW) 09:07:19 437.345
UWE-3 19 Nov 09:03:10 09:06:57 34° 292° (WNW) 09:10:41 435.000/436.395/437.385
HO-68 19 Nov 09:04:48 09:11:15 37° 301° (WNW) 09:17:41 435.675
CUTE 1.7 + AOD 2 19 Nov 09:09:11 09:11:15 13° 301° (WNW) 09:13:19 437.475
PCSat 19 Nov 09:17:15 09:22:38 57° 50° (NE) 09:27:58 145.827
DELFI C3 19 Nov 09:17:49 09:21:15 26° 94° (E) 09:24:37 145.870
Max Valier Satellite 19 Nov 09:22:09 09:24:53 19° 93° (E) 09:27:36 145.860
EO-88 19 Nov 09:26:54 09:29:12 16° 91° (E) 09:31:31 145.990 - 145.960
UNISAT 6 19 Nov 09:37:09 09:41:39 53° 260° (W) 09:46:04 437.425
CUBEBUG 2 19 Nov 09:39:16 09:40:33 11° 304° (WNW) 09:41:51 437.445
TIGRISAT 19 Nov 09:42:15 09:46:44 51° 260° (W) 09:51:08 435.000
PRISM 19 Nov 09:48:05 09:52:12 83° 73° (ENE) 09:56:23 437.425
AO-73 19 Nov 09:52:23 09:55:40 23° 295° (WNW) 09:58:58 145.935
AIST 2D 19 Nov 09:52:45 09:55:37 24° 68° (ENE) 09:58:30 435.315
DUCHIFAT 1 19 Nov 09:55:34 09:56:52 11° 56° (ENE) 09:58:10 145.980
EO-79 19 Nov 09:58:22 10:00:48 15° 59° (ENE) 10:03:15 145.935-145.965
AAUSAT CUBESAT 2 19 Nov 09:59:28 10:01:28 13° 301° (WNW) 10:03:29 437.432
BEESAT 3 19 Nov 10:01:01 10:03:24 15° 28° (NNE) 10:05:45 437.485
NANOSAT C BR1 19 Nov 10:03:22 10:05:47 15° 59° (ENE) 10:08:13 145.865
FO-29 19 Nov 10:08:51 10:12:28 15° 280° (W) 10:16:16 435.910
Oscar 11 19 Nov 10:11:42 10:15:07 23° 296° (WNW) 10:18:32 .
POLYITAN 1 19 Nov 10:12:11 10:15:16 20° 62° (ENE) 10:18:21 437.675
QB50P2 19 Nov 10:34:20 10:38:11 34° 67° (ENE) 10:42:02 145.880/145.840
AO-85 19 Nov 10:34:24 10:36:00 12° 17° (NNE) 10:37:38 145.980
DELFI C3 19 Nov 10:52:27 10:56:00 31° 292° (WNW) 10:59:31 145.870
Max Valier Satellite 19 Nov 10:55:27 10:58:48 34° 290° (WNW) 11:02:09 145.860
HO-68 19 Nov 10:56:22 10:56:59 10° 324° (NW) 10:57:37 435.675
BUGSAT 1 19 Nov 10:57:21 10:59:19 13° 58° (ENE) 11:01:15 437.445
EO-88 19 Nov 10:59:35 11:03:04 43° 288° (WNW) 11:06:32 145.990 - 145.960
ESTCUBE 1 19 Nov 11:00:18 11:03:51 22° 92° (E) 11:07:22 437.505/2401.250
PCSat 19 Nov 11:01:11 11:05:42 28° 250° (WSW) 11:10:13 145.827
BEESAT 2 19 Nov 11:06:04 11:08:57 18° 31° (NNE) 11:11:47 435.950
AIST 2D 19 Nov 11:25:51 11:28:44 24° 266° (W) 11:31:38 435.315
PRISM 19 Nov 11:27:00 11:28:03 11° 273° (W) 11:29:07 437.425
DUCHIFAT 1 19 Nov 11:27:36 11:31:50 83° 74° (ENE) 11:36:04 145.980
EO-79 19 Nov 11:31:49 11:36:03 70° 258° (WSW) 11:40:18 145.935-145.965
LO-87 19 Nov 11:31:53 11:35:25 60° 102° (ESE) 11:38:54 145.935 - 145.965
NANOSAT C BR1 19 Nov 11:36:46 11:40:59 70° 257° (WSW) 11:45:13 145.865
BEESAT 3 19 Nov 11:37:43 11:41:41 66° 49° (NE) 11:45:34 437.485
POLYITAN 1 19 Nov 11:46:35 11:50:44 49° 260° (W) 11:54:52 437.675
AO-7 19 Nov 11:50:29 11:54:41 15° 34° (NE) 11:58:52 .
Oscar 19 19 Nov 11:52:40 11:57:03 29° 63° (ENE) 12:01:26 437.125/150
Gurwin Techsat 1B 19 Nov 11:58:32 12:02:49 26° 61° (ENE) 12:07:09 435.225
QB50P2 19 Nov 12:10:24 12:14:01 27° 265° (W) 12:17:39 145.880/145.840
AO-85 19 Nov 12:13:42 12:17:45 31° 39° (NE) 12:22:04 145.980
M-CUBED/EXP-1 PRIME 19 Nov 12:27:42 12:30:01 16° 53° (NE) 12:32:25 437.505
BUGSAT 1 19 Nov 12:29:51 12:34:04 82° 256° (WSW) 12:38:16 437.445
ESTCUBE 1 19 Nov 12:36:32 12:40:52 46° 290° (WNW) 12:45:12 437.505/2401.250
BEESAT 2 19 Nov 12:43:10 12:47:15 88° 56° (NE) 12:51:15 435.950
SPROUT 19 Nov 12:47:26 12:51:41 66° 102° (ESE) 12:55:53 437.525
LO-87 19 Nov 13:06:47 13:08:21 13° 299° (WNW) 13:09:55 145.935 - 145.965
DUCHIFAT 1 19 Nov 13:06:53 13:08:04 11° 273° (W) 13:09:16 145.980
VELOX 1 19 Nov 13:07:27 13:11:56 67° 103° (ESE) 13:16:21 145.980
O/OREOS (USA 219) 19 Nov 13:08:59 13:11:59 17° 100° (E) 13:15:00 437.305
UKube-1 19 Nov 13:13:29 13:15:26 13° 89° (E) 13:17:22 .
BEESAT 3 19 Nov 13:16:23 13:18:44 15° 248° (WSW) 13:21:04 437.485
Oscar 19 19 Nov 13:31:19 13:36:11 44° 261° (W) 13:41:06 437.125/150
Gurwin Techsat 1B 19 Nov 13:37:15 13:42:27 55° 259° (W) 13:47:42 435.225
AO-7 19 Nov 13:37:42 13:45:27 46° 58° (ENE) 13:53:14 .
ITAMSAT 1 19 Nov 13:40:36 13:44:26 21° 58° (ENE) 13:48:16 435.822/435.867
FALCONSAT 3 19 Nov 13:40:57 13:41:46 11° 186° (S) 13:42:34 435.103
AO-85 19 Nov 13:53:52 13:58:22 52° 238° (WSW) 14:03:12 145.980
M-CUBED/EXP-1 PRIME 19 Nov 14:00:30 14:03:58 55° 254° (WSW) 14:07:45 437.505
DX 1 19 Nov 14:00:31 14:04:52 57° 102° (ESE) 14:09:10 434.975-435.025
50 SAT 19 Nov 14:00:50 14:04:06 71° 103° (ESE) 14:07:18 437.505
BEESAT 2 19 Nov 14:22:54 14:24:19 12° 251° (WSW) 14:25:43 435.950
SPROUT 19 Nov 14:24:30 14:27:05 16° 300° (WNW) 14:29:39 437.525
YUBILEINY 19 Nov 14:28:50 14:33:09 14° 46° (NE) 14:37:27 435.215
VELOX 1 19 Nov 14:44:59 14:47:52 17° 301° (WNW) 14:50:44 145.980
O/OREOS (USA 219) 19 Nov 14:46:20 14:50:54 63° 299° (WNW) 14:55:30 437.305
UKube-1 19 Nov 14:47:38 14:51:59 76° 286° (WNW) 14:56:18 .
BEESAT 19 Nov 14:49:35 14:53:03 20° 91° (E) 14:56:29 436.000
ITUPSAT 1 19 Nov 14:57:29 15:01:14 23° 93° (E) 15:04:58 437.325
DOVE 4 19 Nov 15:14:52 15:18:54 24° 61° (ENE) 15:23:03 437.250
ITAMSAT 1 19 Nov 15:18:11 15:23:24 69° 257° (WSW) 15:28:39 435.822/435.867
AO-7 19 Nov 15:30:12 15:38:10 51° 259° (W) 15:46:14 .
MOZHAYETS 4 19 Nov 15:31:18 15:35:50 61° 101° (E) 15:40:22
CUBESAT XI-V 19 Nov 15:37:24 15:40:49 20° 91° (E) 15:44:12 437.345
DX 1 19 Nov 15:37:34 15:40:39 19° 300° (WNW) 15:43:44 434.975-435.025
LilacSat-2 19 Nov 16:04:43 16:06:13 12° 60° (ENE) 16:07:44 437.200
HO-68 19 Nov 16:05:29 16:09:31 16° 44° (NE) 16:13:33 435.675
XW-2C 19 Nov 16:05:49 16:07:07 11° 59° (ENE) 16:08:23 145.795 - 145.815
NO-84 19 Nov 16:10:21 16:13:50 35° 136° (SE) 16:17:33 435.350 FM
XW-2F 19 Nov 16:17:49 16:19:51 14° 61° (ENE) 16:21:52 145.980 - 146.000
YUBILEINY 19 Nov 16:23:52 16:32:32 53° 72° (ENE) 16:41:07 435.215
UKube-1 19 Nov 16:26:05 16:27:14 11° 305° (NW) 16:28:22 .
BEESAT 19 Nov 16:26:31 16:31:11 57° 290° (WNW) 16:35:50 436.000
O/OREOS (USA 219) 19 Nov 16:29:19 16:31:17 12° 320° (NW) 16:33:16 437.305
ITUPSAT 1 19 Nov 16:34:43 16:39:19 49° 291° (WNW) 16:43:53 437.325
CUTE-I 19 Nov 16:34:55 16:39:28 29° 62° (ENE) 16:44:02 437.470
RS-15 19 Nov 16:48:01 16:49:58 10° 89° (E) 16:51:54 29.354- 29.394
KAITUO 1B 19 Nov 16:48:34 16:51:29 23° 66° (ENE) 16:54:26 145.475/437.950
DOVE 4 19 Nov 16:51:13 16:56:09 57° 261° (W) 17:01:21 437.250
CUTE 1.7 + AOD 2 19 Nov 16:55:01 16:56:35 12° 57° (ENE) 16:58:09 437.475
XW-2D 19 Nov 16:57:04 17:00:33 38° 70° (ENE) 17:04:04 145.860 - 145.880
MOZHAYETS 4 19 Nov 17:09:24 17:12:34 19° 300° (WNW) 17:15:43
XW-2B 19 Nov 17:11:37 17:15:16 54° 72° (ENE) 17:18:56 145.730 - 145.750
CUBESAT XI-V 19 Nov 17:13:55 17:18:30 55° 289° (WNW) 17:23:05 437.345
CUBEBUG 2 19 Nov 17:26:56 17:29:49 17° 60° (ENE) 17:32:39 437.445
SEEDS 19 Nov 17:28:42 17:31:14 16° 61° (ENE) 17:33:48 437.485
LilacSat-2 19 Nov 17:36:13 17:39:58 72° 259° (W) 17:43:44 437.200
NUDT-PHONESAT 19 Nov 17:36:13 17:39:51 74° 73° (ENE) 17:43:31 437.300
XW-2C 19 Nov 17:37:00 17:40:43 75° 258° (WSW) 17:44:29 145.795 - 145.815
KKS-1 19 Nov 17:39:16 17:43:45 69° 102° (ESE) 17:48:12 437.445
AAUSAT CUBESAT 2 19 Nov 17:43:57 17:44:56 11° 57° (ENE) 17:45:54 437.432
NO-84 19 Nov 17:47:12 17:51:04 56° 336° (NNW) 17:55:12 435.350 FM
HO-68 19 Nov 17:48:49 17:55:51 60° 66° (ENE) 18:02:54 435.675
XW-2F 19 Nov 17:49:52 17:53:31 56° 259° (W) 17:57:13 145.980 - 146.000
XW-2A 19 Nov 18:00:56 18:02:33 13° 63° (ENE) 18:04:10 145.665 - 145.685
STARS 19 Nov 18:09:45 18:14:07 59° 101° (ESE) 18:18:26 437.465
CUTE-I 19 Nov 18:14:06 18:19:17 49° 260° (W) 18:24:30 437.470
YUBILEINY 19 Nov 18:21:04 18:29:08 41° 275° (W) 18:37:10 435.215
KAITUO 1B 19 Nov 18:22:02 18:25:19 31° 264° (W) 18:28:39 145.475/437.950
ZACube-1 19 Nov 18:23:25 18:26:22 18° 62° (ENE) 18:29:16 437.345
UWE-3 19 Nov 18:26:59 18:30:59 33° 68° (ENE) 18:34:54 435.000/436.395/437.385
CUTE 1.7 + AOD 2 19 Nov 18:27:32 18:31:44 89° 109° (ESE) 18:35:59 437.475
XW-2D 19 Nov 18:32:14 18:34:53 18° 268° (W) 18:37:33 145.860 - 145.880
RS-15 19 Nov 18:47:36 18:59:08 50° 112° (ESE) 19:10:35 29.354- 29.394
XW-2B 19 Nov 18:47:51 18:49:46 13° 270° (W) 18:51:42 145.730 - 145.750
STRAND 1 19 Nov 18:54:31 18:58:31 22° 92° (E) 19:02:28 437.568
CUBEBUG 2 19 Nov 19:01:22 19:05:58 69° 259° (WSW) 19:10:27 437.445
SEEDS 19 Nov 19:02:20 19:06:27 63° 259° (W) 19:10:38 437.485
AO-73 19 Nov 19:14:20 19:18:28 47° 71° (ENE) 19:22:32 145.935
AAUSAT CUBESAT 2 19 Nov 19:15:32 19:19:39 82° 75° (ENE) 19:23:49 437.432
KKS-1 19 Nov 19:16:57 19:19:48 17° 301° (WNW) 19:22:37 437.445
NO-84 19 Nov 19:25:18 19:29:03 33° 358° (N) 19:32:55 435.350 FM
FO-29 19 Nov 19:25:41 19:31:05 20° 83° (E) 19:36:21 435.910
XW-2A 19 Nov 19:31:39 19:34:52 48° 260° (W) 19:38:07 145.665 - 145.685
Oscar 11 19 Nov 19:33:05 19:37:14 51° 72° (ENE) 19:41:26 .
HO-68 19 Nov 19:37:38 19:43:57 33° 266° (W) 19:50:21 435.675
STARS 19 Nov 19:47:00 19:50:03 18° 300° (WNW) 19:53:03 437.465
ZACube-1 19 Nov 19:58:01 20:02:17 56° 259° (W) 20:06:29 437.345
UWE-3 19 Nov 20:03:34 20:07:27 29° 265° (W) 20:11:16 435.000/436.395/437.385
Max Valier Satellite 19 Nov 20:04:51 20:07:11 16° 63° (ENE) 20:09:33 145.860
DELFI C3 19 Nov 20:06:28 20:09:45 25° 66° (ENE) 20:13:04 145.870
EO-88 19 Nov 20:08:40 20:10:27 13° 61° (ENE) 20:12:14 145.990 - 145.960
STRAND 1 19 Nov 20:33:01 20:38:03 56° 290° (WNW) 20:43:01 437.568
AO-73 19 Nov 20:51:49 20:54:56 19° 268° (W) 20:58:02 145.935
AAUSAT CUBESAT 2 19 Nov 20:54:40 20:55:41 11° 274° (W) 20:56:42 437.432
RS-15 19 Nov 20:59:04 21:11:23 67° 317° (NW) 21:23:31 29.354- 29.394
NO-84 19 Nov 21:03:02 21:07:06 45° 19° (NNE) 21:11:14 435.350 FM
FO-29 19 Nov 21:09:17 21:17:15 82° 104° (ESE) 21:24:52 435.910
Oscar 11 19 Nov 21:10:41 21:13:41 18° 269° (W) 21:16:42 .
ISS 19 Nov 21:18:18 21:19:51 13° 135° (SE) 21:21:24 437.550
SO-50 19 Nov 21:18:30 21:19:14 10° 108° (ESE) 21:19:59 436.795
UNISAT 6 19 Nov 21:25:22 21:28:51 24° 93° (E) 21:32:18 437.425
TIGRISAT 19 Nov 21:30:16 21:33:47 24° 93° (E) 21:37:15 435.000
O/OREOS (USA 219) 19 Nov 21:35:43 21:37:36 12° 39° (NE) 21:39:28 437.305
Max Valier Satellite 19 Nov 21:37:10 21:40:41 45° 261° (W) 21:44:14 145.860
EO-88 19 Nov 21:40:05 21:43:39 58° 259° (W) 21:47:15 145.990 - 145.960
DELFI C3 19 Nov 21:40:49 21:44:22 32° 264° (W) 21:48:00 145.870
ESTCUBE 1 19 Nov 22:03:08 22:07:05 31° 66° (ENE) 22:11:03 437.505/2401.250
LO-87 19 Nov 22:10:55 22:14:20 42° 71° (ENE) 22:17:46 145.935 - 145.965
SPROUT 19 Nov 22:11:39 22:12:53 11° 56° (NE) 22:14:05 437.525
nSIGHT-1 19 Nov 22:15:01 22:18:03 40° 148° (SSE) 22:21:06 .
STRAND 1 19 Nov 22:15:27 22:16:09 10° 310° (NW) 22:16:50 437.568
VELOX 1 19 Nov 22:34:20 22:36:30 14° 57° (ENE) 22:38:40 145.980
NO-84 19 Nov 22:40:25 22:44:37 57° 218° (SW) 22:48:47 435.350 FM
AIST 2D 19 Nov 22:46:44 22:49:14 18° 92° (E) 22:51:45 435.315
ISS 19 Nov 22:52:34 22:55:49 64° 152° (SSE) 22:59:03 437.550
SO-50 19 Nov 22:54:24 22:58:51 74° 127° (SE) 23:03:23 436.795
FO-29 19 Nov 22:55:02 23:01:28 29° 305° (NW) 23:07:47 435.910
PRISM 19 Nov 23:00:33 23:04:45 80° 104° (ESE) 23:08:55 437.425
UNISAT 6 19 Nov 23:01:42 23:05:42 38° 292° (WNW) 23:09:39 437.425
TIGRISAT 19 Nov 23:06:38 23:10:36 37° 292° (WNW) 23:14:31 435.000
O/OREOS (USA 219) 19 Nov 23:13:26 23:18:00 63° 61° (ENE) 23:22:29 437.305
EO-79 19 Nov 23:13:52 23:16:12 14° 89° (E) 23:18:31 145.935-145.965
RS-15 19 Nov 23:15:22 23:26:36 38° 348° (NNW) 23:37:30 29.354- 29.394
NANOSAT C BR1 19 Nov 23:18:28 23:20:44 14° 89° (E) 23:23:01 145.865
DX 1 19 Nov 23:26:38 23:28:08 12° 55° (NE) 23:29:38 434.975-435.025
POLYITAN 1 19 Nov 23:28:02 23:31:08 20° 92° (E) 23:34:13 437.675
ESTCUBE 1 19 Nov 23:39:49 23:43:50 32° 264° (W) 23:47:54 437.505/2401.250
SPROUT 19 Nov 23:43:44 23:48:02 80° 75° (ENE) 23:52:20 437.525
LO-87 19 Nov 23:45:38 23:47:56 16° 269° (W) 23:50:15 145.935 - 145.965
QB50P2 19 Nov 23:50:38 23:54:33 36° 97° (E) 23:58:26 145.880/145.840
nSIGHT-1 19 Nov 23:51:04 23:54:14 57° 347° (NNW) 23:57:25 .
PCSat 20 Nov 00:03:49 00:07:55 22° 108° (ESE) 00:12:01 145.827
VELOX 1 20 Nov 00:07:50 00:12:16 88° 257° (WSW) 00:16:46 145.980
BUGSAT 1 20 Nov 00:10:19 00:11:09 11° 87° (E) 00:12:00 437.445
UKube-1 20 Nov 00:10:53 00:13:56 19° 60° (ENE) 00:16:59 .
AIST 2D 20 Nov 00:19:18 00:22:31 34° 290° (WNW) 00:25:45 435.315
NO-84 20 Nov 00:19:51 00:21:13 11° 236° (SW) 00:22:36 435.350 FM
ISS 20 Nov 00:29:12 00:32:23 49° 352° (N) 00:35:35 437.550
50 SAT 20 Nov 00:31:11 00:34:13 38° 71° (ENE) 00:37:17 437.505
SO-50 20 Nov 00:36:08 00:39:48 24° 327° (NNW) 00:43:30 436.795
PRISM 20 Nov 00:37:23 00:39:26 13° 302° (WNW) 00:41:28 437.425
DUCHIFAT 1 20 Nov 00:43:10 00:47:22 90° 265° (W) 00:51:32 145.980
EO-79 20 Nov 00:48:13 00:52:23 63° 287° (WNW) 00:56:31 145.935-145.965
NANOSAT C BR1 20 Nov 00:52:43 00:56:52 63° 288° (WNW) 01:01:00 145.865
O/OREOS (USA 219) 20 Nov 00:53:58 00:56:54 17° 260° (W) 00:59:48 437.305
DX 1 20 Nov 00:59:12 01:03:34 79° 73° (ENE) 01:07:58 434.975-435.025
MOZHAYETS 4 20 Nov 01:02:22 01:04:34 13° 57° (ENE) 01:06:46
POLYITAN 1 20 Nov 01:03:08 01:07:08 44° 290° (WNW) 01:11:07 437.675
SPROUT 20 Nov 01:22:50 01:24:28 12° 272° (W) 01:26:07 437.525
QB50P2 20 Nov 01:26:43 01:30:11 25° 295° (WNW) 01:33:37 145.880/145.840
nSIGHT-1 20 Nov 01:27:39 01:30:46 47° 6° (N) 01:33:53 .
RS-15 20 Nov 01:31:28 01:42:54 43° 22° (NNE) 01:53:47 29.354- 29.394
Oscar 19 20 Nov 01:38:35 01:43:34 48° 99° (E) 01:48:34 437.125/150
BUGSAT 1 20 Nov 01:43:00 01:47:06 80° 284° (WNW) 01:51:06 437.445
UKube-1 20 Nov 01:45:20 01:49:34 55° 259° (W) 01:53:51 .
PCSat 20 Nov 01:45:25 01:50:49 68° 307° (NW) 01:56:16 145.827
VELOX 1 20 Nov 01:48:22 01:49:23 11° 274° (W) 01:50:25 145.980
Gurwin Techsat 1B 20 Nov 01:49:28 01:54:34 44° 98° (E) 01:59:38 435.225
BEESAT 20 Nov 01:59:07 02:03:26 35° 65° (ENE) 02:07:45 436.000
50 SAT 20 Nov 02:04:44 02:06:31 14° 268° (W) 02:08:19 437.505
ISS 20 Nov 02:05:56 02:09:11 57° 13° (NNE) 02:12:24 437.550
ITUPSAT 1 20 Nov 02:07:24 02:11:52 41° 67° (ENE) 02:16:21 437.325
SO-50 20 Nov 02:20:30 02:21:53 11° 351° (N) 02:23:16 436.795
DUCHIFAT 1 20 Nov 02:20:49 02:22:22 12° 303° (WNW) 02:23:53 145.980
MOZHAYETS 4 20 Nov 02:36:28 02:41:02 89° 95° (E) 02:45:38
DX 1 20 Nov 02:38:28 02:40:19 12° 272° (W) 02:42:10 434.975-435.025
CUBESAT XI-V 20 Nov 02:44:02 02:47:58 29° 65° (ENE) 02:51:57 437.345
nSIGHT-1 20 Nov 03:03:56 03:07:07 67° 207° (SSW) 03:10:18 .
KKS-1 20 Nov 03:06:36 03:09:03 15° 57° (ENE) 03:11:31 437.445
BEESAT 3 20 Nov 03:07:33 03:11:06 31° 118° (ESE) 03:14:40 437.485
M-CUBED/EXP-1 PRIME 20 Nov 03:08:15 03:12:41 57° 106° (ESE) 03:17:14 437.505
Oscar 19 20 Nov 03:18:21 03:22:40 28° 298° (WNW) 03:26:59 437.125/150
BUGSAT 1 20 Nov 03:21:17 03:21:42 10° 304° (NW) 03:22:08 437.445
AO-7 20 Nov 03:26:57 03:34:54 46° 100° (E) 03:42:50 .
ITAMSAT 1 20 Nov 03:27:26 03:32:04 31° 95° (E) 03:36:39 435.822/435.867
Gurwin Techsat 1B 20 Nov 03:29:43 03:34:21 31° 297° (WNW) 03:38:59 435.225
PCSat 20 Nov 03:31:21 03:35:14 19° 330° (NNW) 03:39:07 145.827
STARS 20 Nov 03:36:26 03:38:15 12° 56° (NE) 03:40:04 437.465
BEESAT 20 Nov 03:36:57 03:41:13 32° 264° (W) 03:45:30 436.000
YUBILEINY 20 Nov 03:41:31 03:43:11 11° 66° (ENE) 03:44:50 435.215
ISS 20 Nov 03:42:31 03:45:38 42° 212° (SSW) 03:48:44 437.550
RS-15 20 Nov 03:45:00 03:57:05 88° 52° (NE) 04:08:27 29.354- 29.394
ITUPSAT 1 20 Nov 03:45:43 03:49:49 28° 265° (W) 03:53:55 437.325
SO-50 20 Nov 04:02:09 04:04:21 13° 17° (NNE) 04:06:34 436.795
AO-85 20 Nov 04:13:10 04:15:52 18° 113° (ESE) 04:18:39 145.980
BEESAT 2 20 Nov 04:14:31 04:18:21 45° 121° (ESE) 04:22:15 435.950
MOZHAYETS 4 20 Nov 04:17:20 04:18:51 11° 274° (W) 04:20:23
CUBESAT XI-V 20 Nov 04:21:00 04:25:14 37° 263° (W) 04:29:32 437.345
KKS-1 20 Nov 04:40:30 04:45:00 82° 256° (WSW) 04:49:31 437.445
nSIGHT-1 20 Nov 04:41:16 04:42:52 13° 224° (SW) 04:44:26 .
M-CUBED/EXP-1 PRIME 20 Nov 04:43:19 04:46:44 22° 303° (WNW) 04:50:13 437.505
BEESAT 3 20 Nov 04:44:52 04:48:35 36° 317° (NW) 04:52:19 437.485
DOVE 4 20 Nov 04:46:26 04:51:13 34° 94° (E) 04:55:48 437.250
ITAMSAT 1 20 Nov 05:06:45 05:11:39 42° 294° (WNW) 05:16:30 435.822/435.867
STARS 20 Nov 05:09:26 05:13:53 84° 73° (ENE) 05:18:21 437.465
XW-2F 20 Nov 05:19:46 05:21:02 11° 88° (E) 05:22:19 145.980 - 146.000
PCSat 20 Nov 05:19:47 05:20:55 11° 356° (N) 05:22:03 145.827
